| time (UTC) | temp F | wind direction | speed MPH | gust MPH | rain 1hr in | rain 24hr in | rain mn in | humidity % | barometer mb |
| 20260507050005 | 44 | 332 | 2.0 | 6.0 | 0.00 | 0.00 | 0.00 | 93 | 1014.6 |
| 20260507044004 | 44 | 306 | 3.0 | 5.0 | 0.00 | 0.00 | 0.00 | 94 | 1014.6 |
| 20260507043004 | 44 | 307 | 2.0 | 2.0 | 0.00 | 0.00 | 0.00 | 94 | 1014.6 |
| 20260507041004 | 44 | 334 | 2.0 | 6.0 | 0.00 | 0.00 | 0.00 | 94 | 1014.2 |
| 20260507034004 | 44 | 233 | 2.0 | 6.0 | 0.00 | 0.01 | 0.00 | 96 | 1013.9 |
| 20260507033004 | 44 | 275 | 2.0 | 6.0 | 0.00 | 0.01 | 0.00 | 96 | 1013.9 |
| 20260507025004 | 45 | 331 | 1.0 | 3.0 | 0.00 | 0.01 | 0.00 | 95 | 1013.5 |
| 20260507024004 | 45 | 271 | 2.0 | 3.0 | 0.00 | 0.01 | 0.00 | 95 | 1013.9 |
| 20260507023004 | 45 | 242 | 1.0 | 5.0 | 0.00 | 0.01 | 0.00 | 95 | 1013.5 |
| 20260507022004 | 46 | 188 | 1.0 | 6.0 | 0.00 | 0.01 | 0.00 | 95 | 1013.5 |
| 20260507014004 | 46 | 299 | 2.0 | 5.0 | 0.00 | 0.01 | 0.00 | 95 | 1013.5 |
| 20260507013004 | 46 | 216 | 2.0 | 3.0 | 0.00 | 0.01 | 0.00 | 95 | 1013.5 |
| 20260507012004 | 47 | 304 | 1.0 | 3.0 | 0.00 | 0.01 | 0.00 | 95 | 1013.5 |
| 20260507011004 | 47 | 192 | 2.0 | 5.0 | 0.00 | 0.01 | 0.00 | 95 | 1013.2 |
| 20260507010005 | 47 | 332 | 2.0 | 5.0 | 0.00 | 0.01 | 0.00 | 95 | 1013.2 |
| 20260507004004 | 47 | 345 | 0.0 | 3.0 | 0.00 | 0.01 | 0.00 | 95 | 1013.2 |
| 20260507001004 | 48 | 320 | 1.0 | 3.0 | 0.00 | 0.01 | 0.00 | 95 | 1013.2 |
| 20260507000004 | 48 | 205 | 2.0 | 5.0 | 0.00 | 0.01 | 0.00 | 95 | 1013.2 |
| 20260506234004 | 48 | 258 | 3.0 | 8.0 | 0.00 | 0.01 | 0.01 | 95 | 1013.2 |
| 20260506233004 | 48 | 344 | 2.0 | 6.0 | 0.00 | 0.01 | 0.01 | 95 | 1013.2 |
| 20260506232004 | 48 | 209 | 2.0 | 8.0 | 0.00 | 0.01 | 0.01 | 95 | 1013.2 |
| 20260506230004 | 48 | 201 | 3.0 | 6.0 | 0.00 | 0.01 | 0.01 | 94 | 1012.9 |
| 20260506225004 | 49 | 212 | 3.0 | 8.0 | 0.00 | 0.01 | 0.01 | 94 | 1012.9 |
| 20260506224004 | 49 | 335 | 2.0 | 5.0 | 0.00 | 0.01 | 0.01 | 94 | 1012.9 |
| 20260506222004 | 49 | 222 | 2.0 | 5.0 | 0.00 | 0.01 | 0.01 | 94 | 1012.9 |
| 20260506220004 | 49 | 181 | 2.0 | 7.0 | 0.00 | 0.01 | 0.01 | 95 | 1012.5 |
| 20260506215006 | 49 | 290 | 3.0 | 8.0 | 0.00 | 0.01 | 0.01 | 94 | 1012.2 |
| 20260506214004 | 49 | 227 | 2.0 | 7.0 | 0.00 | 0.01 | 0.01 | 93 | 1012.2 |
| 20260506212043 | 49 | 315 | 1.0 | 1.0 | 0.00 | 0.01 | 0.01 | 90 | 1011.9 |
| 20260506211004 | 49 | 322 | 0.0 | 1.0 | 0.00 | 0.01 | 0.01 | 90 | 1011.5 |
| 20260506210004 | 49 | 345 | 0.0 | 3.0 | 0.00 | 0.01 | 0.01 | 91 | 1011.5 |
| 20260506205004 | 49 | 236 | 2.0 | 3.0 | 0.00 | 0.02 | 0.01 | 92 | 1011.9 |
| 20260506203004 | 50 | 7 | 1.0 | 2.0 | 0.00 | 0.02 | 0.01 | 91 | 1011.2 |
| 20260506202004 | 51 | 329 | 1.0 | 2.0 | 0.00 | 0.02 | 0.01 | 89 | 1011.2 |
| 20260506195004 | 52 | 36 | 1.0 | 5.0 | 0.00 | 0.02 | 0.01 | 82 | 1010.8 |
| 20260506194004 | 53 | 143 | 3.0 | 5.0 | 0.00 | 0.02 | 0.01 | 83 | 1010.8 |
| 20260506193004 | 53 | 99 | 2.0 | 7.0 | 0.00 | 0.02 | 0.01 | 82 | 1010.7 |
| 20260506192004 | 54 | 194 | 1.0 | 5.0 | 0.00 | 0.02 | 0.01 | 80 | 1010.5 |
| 20260506190005 | 59 | 328 | 1.0 | 3.0 | 0.00 | 0.02 | 0.01 | 58 | 1009.8 |
| 20260506185004 | 59 | 333 | 3.0 | 7.0 | 0.00 | 0.02 | 0.01 | 57 | 1009.5 |
| 20260506184004 | 60 | 191 | 5.0 | 8.0 | 0.00 | 0.02 | 0.01 | 55 | 1009.5 |
| 20260506183005 | 60 | 262 | 5.0 | 8.0 | 0.00 | 0.02 | 0.01 | 55 | 1009.1 |
| 20260506182004 | 60 | 201 | 3.0 | 6.0 | 0.00 | 0.02 | 0.01 | 56 | 1008.5 |
| 20260506175004 | 62 | 275 | 3.0 | 5.0 | 0.00 | 0.02 | 0.01 | 52 | 1008.8 |
| 20260506171004 | 64 | 209 | 3.0 | 6.0 | 0.00 | 0.02 | 0.01 | 49 | 1008.5 |
| 20260506170004 | 64 | 210 | 5.0 | 6.0 | 0.00 | 0.02 | 0.01 | 48 | 1008.5 |
| 20260506164004 | 64 | 238 | 5.0 | 10.0 | 0.00 | 0.02 | 0.01 | 47 | 1008.5 |
| 20260506163004 | 65 | 204 | 7.0 | 10.0 | 0.00 | 0.02 | 0.01 | 48 | 1008.8 |
| 20260506162004 | 65 | 221 | 3.0 | 3.0 | 0.00 | 0.02 | 0.01 | 50 | 1008.8 |
| 20260506161004 | 66 | 208 | 2.0 | 6.0 | 0.00 | 0.02 | 0.01 | 50 | 1008.8 |
| 20260506160005 | 66 | 233 | 3.0 | 5.0 | 0.00 | 0.02 | 0.01 | 48 | 1008.8 |
| 20260506155004 | 65 | 196 | 2.0 | 5.0 | 0.00 | 0.02 | 0.01 | 49 | 1009.1 |
| 20260506154004 | 64 | 277 | 2.0 | 2.0 | 0.00 | 0.02 | 0.01 | 50 | 1009.1 |
| 20260506153004 | 64 | 211 | 2.0 | 3.0 | 0.00 | 0.02 | 0.01 | 49 | 1009.1 |
| 20260506151004 | 64 | 247 | 3.0 | 5.0 | 0.00 | 0.02 | 0.01 | 48 | 1009.6 |
| 20260506145004 | 65 | 274 | 2.0 | 5.0 | 0.00 | 0.02 | 0.01 | 49 | 1009.5 |
| 20260506143004 | 65 | 329 | 4.0 | 7.0 | 0.00 | 0.02 | 0.01 | 46 | 1009.8 |
| 20260506141004 | 65 | 315 | 2.0 | 10.0 | 0.00 | 0.02 | 0.01 | 44 | 1009.8 |
| 20260506140005 | 67 | 196 | 5.0 | 7.0 | 0.00 | 0.02 | 0.01 | 45 | 1009.8 |
| 20260506134004 | 70 | 156 | 3.0 | 6.0 | 0.00 | 0.02 | 0.01 | 43 | 1009.8 |
| 20260506133005 | 70 | 203 | 3.0 | 6.0 | 0.00 | 0.02 | 0.01 | 43 | 1009.8 |
| 20260506130005 | 66 | 186 | 6.0 | 10.0 | 0.00 | 0.02 | 0.01 | 47 | 1010.2 |
| 20260506125006 | 68 | 196 | 2.0 | 8.0 | 0.00 | 0.02 | 0.01 | 45 | 1010.2 |
| 20260506124004 | 66 | 230 | 6.0 | 8.0 | 0.00 | 0.02 | 0.01 | 46 | 1010.5 |
| 20260506123004 | 65 | 165 | 3.0 | 5.0 | 0.00 | 0.02 | 0.01 | 47 | 1010.8 |
| 20260506122004 | 70 | 223 | 3.0 | 6.0 | 0.00 | 0.02 | 0.01 | 44 | 1010.5 |
| 20260506121004 | 66 | 198 | 2.0 | 6.0 | 0.00 | 0.02 | 0.01 | 51 | 1010.8 |
| 20260506115004 | 66 | 170 | 5.0 | 12.0 | 0.00 | 0.02 | 0.01 | 47 | 1010.8 |
| 20260506112004 | 63 | 188 | 3.0 | 9.0 | 0.00 | 0.02 | 0.01 | 53 | 1011.5 |
| 20260506111004 | 63 | 248 | 7.0 | 9.0 | 0.00 | 0.02 | 0.01 | 53 | 1011.5 |
| 20260506110004 | 63 | 227 | 5.0 | 6.0 | 0.00 | 0.02 | 0.01 | 57 | 1011.5 |
| 20260506104004 | 63 | 222 | 6.0 | 7.0 | 0.00 | 0.02 | 0.01 | 60 | 1011.5 |
| 20260506103004 | 64 | 232 | 5.0 | 6.0 | 0.00 | 0.02 | 0.01 | 58 | 1011.9 |
| 20260506101004 | 62 | 243 | 2.0 | 6.0 | 0.00 | 0.02 | 0.01 | 61 | 1011.9 |
| 20260506093004 | 62 | 215 | 3.0 | 5.0 | 0.00 | 0.02 | 0.01 | 61 | 1011.9 |
| 20260506091004 | 61 | 196 | 2.0 | 3.0 | 0.00 | 0.02 | 0.01 | 60 | 1012.2 |
| 20260506090004 | 60 | 341 | 2.0 | 3.0 | 0.00 | 0.02 | 0.01 | 62 | 1012.2 |
| 20260506082004 | 59 | 253 | 4.0 | 6.0 | 0.00 | 0.02 | 0.01 | 71 | 1012.5 |
| 20260506072004 | 55 | 215 | 3.0 | 6.0 | 0.00 | 0.02 | 0.01 | 77 | 1012.2 |
| 20260506062004 | 53 | 250 | 2.0 | 3.0 | 0.00 | 0.02 | 0.01 | 87 | 1012.5 |
| 20260506061004 | 54 | 307 | 2.0 | 3.0 | 0.00 | 0.02 | 0.01 | 88 | 1012.2 |